2018-084A (43671 NORAD) Tracking and Keplerian Element Data

This shows tracking and keplerian element data for the satellite.

Feedback or suggestion? Click here.




ElementValue
Catalog43671
Name2018-084A
Epoch Orbit441
Epoch Day331.78518598
Epoch Year2018
RAAN82.2136
Inclination97.8441
Eccentricity0.0019076
Argument of Perigee264.2255
Mean Anonmoly95.6766
Mean Motion14.93189093
Decay Rate0.00024296
L11 43671U 18084A 18331.78518598 .00024296 00000-0 23170-2 0 9997
L22 43671 97.8441 82.2136 0019076 264.2255 95.6766 14.93189093 4412

Live tracking and technical data element details for 2018-084A (NORAD 43671). 2018-084A can be tracked NOW for your location showing map with azimuth and elevation plus other details from your city location.

Track the satellite on the map from your city or location and see movement details for azimuth, elevation, latitude, longitude, range, height, and movement on the map or in text.







IsCatalogInMostPopularTable: catalog: 43671, numindb: 128
Update: records affected: 1



GetName: 43671 2018-084A

Hit Count: updated at: Mon, 22 Jul 2019 03:32:45 GMT